Regional Weather Roundup
Issued by NWS Wakefield, VA

Home | Current Version | Previous Version | Text Only | Print | Product List | Glossary Off
Versions: 1 2 3 4 5 6 7 8 9 10 11 12 13 14 15 16 17 18 19 20 21 22 23 24 25 26 27 28 29 30 31 32 33 34 35 36 37 38 39 40 41 42 43 44 45 46 47 48 49 50

707
ASUS41 KAKQ 171415
RWRAKQ

REGIONAL WEATHER ROUNDUP
NATIONAL WEATHER SERVICE WAKEFIELD VA
900 AM EST SUN DEC 17 2017

Note: "fair" indicates few or no clouds below 12,000 feet with no
significant weather and/or obstructions to visibility. * = Denotes
station may not report precipitation (e.g., rain,snow,etc.),
thunder or fog.

VAZ042-051-052>054-056-171500-
NORTHERN VIRGINIA

CITY           SKY/WX    TMP DP  RH WIND       PRES   REMARKS
WASH NATIONAL  PTSUNNY   36  31  82 S3        30.28S
DULLES         CLOUDY    32  27  81 CALM      30.27R
FORT BELVOIR   CLOUDY    32  26  77 CALM      30.27S
QUANTICO       CLOUDY    32  28  85 NW3       30.28S
FREDERICKSBRG* MOSUNNY   29  27  93 CALM      30.27S
STAFFORD*      MOSUNNY   29  29 100 W3        30.31S
WARRENTON      CLOUDY    32  24  72 CALM      30.26S
CULPEPER*      CLOUDY    31  25  79 CALM      30.28R
MANASSAS*      PTSUNNY   35  27  72 CALM      30.27S
LEESBURG*      CLOUDY    32  30  93 CALM      30.27R
WINCHESTER     MOSUNNY   34  25  69 SW5       30.25R
FRONT ROYAL*   CLOUDY    36  27  69 S5        30.24F
LURAY*         CLOUDY    32  30  93 CALM      30.24F
$$

VAZ048-049-060>072-079>083-171500-
CENTRAL AND SOUTH CENTRAL VIRGINIA

CITY           SKY/WX    TMP DP  RH WIND       PRES   REMARKS
RICHMOND       PTSUNNY   38  29  70 CALM      30.25F
CHESTERFIELD*  NOT AVBL
PETERSBURG*    MOSUNNY   34  27  75 SW3       30.29R
HANOVER        CLOUDY    34  28  79 CALM      30.28R
TAPPAHANNOCK*  CLOUDY    34  30  86 CALM      30.28S
QUINTON*       FAIR      33  29  85 MISG      30.27S
CHARLOTTSVILLE PTSUNNY   38  28  67 CALM      30.22F
GORDONSVILLE*  MOSUNNY   30  27  87 CALM      30.23F
ORANGE*        MOSUNNY   30  27  86 CALM      30.26R
LOUISA*        CLOUDY    34  29  83 N3        30.29S
BUMPASS*       FAIR      32  31  94 SW3       30.25F
FARMVILLE*     MOSUNNY   32  31  97 CALM      30.25R
CREWE*         FAIR      32  30  91 CALM      30.26R
FORT PICKETT*  NOT AVBL
CHASE CITY*    FAIR      32  27  81 CALM      30.27R
CLARKSVILLE*   FAIR      32  30  93 CALM      30.27R
SOUTH HILL*    CLOUDY    32  29  88 S3        30.32S
LAWRENCEVILLE* FAIR      33  28  83 CALM      30.27R
EMPORIA*       MOSUNNY   32  28  86 CALM      30.29F
$$

VAZ088>098-171500-
SOUTHEAST VIRGINIA

CITY           SKY/WX    TMP DP  RH WIND       PRES   REMARKS
NORFOLK        SUNNY     38  29  70 SW8       30.28S
VIRGINIA BEACH PTSUNNY   37  26  64 SW7       30.29S
NORFOLK NAVAL  PTSUNNY   40  28  62 S3        30.29F
WEST POINT*    PTSUNNY  N/A N/A N/A CALM      30.30S
SALUDA*        FAIR      36  29  77 CALM      30.26F
NEWPORT NEWS   MOSUNNY   38  30  73 SW6       30.28S
LANGLEY AFB    MOSUNNY   38  30  72 SW5       30.27S
FORT EUSTIS    CLOUDY    37  29  72 S3        30.25F
WILLIAMSBURG*  CLOUDY    37  34  87 CALM      30.29S
HR EXEC AP*    FAIR      37  32  82 SW5       30.29F
FRANKLIN*      CLOUDY    34  29  82 SW5       30.30F
US460-WAKEFLD  CLOUDY    35  28  75 SW6       30.28S
$$

VAZ020-022-025-037-045-171500-
WEST CENTRAL AND SOUTHWEST VIRGINIA

CITY           SKY/WX    TMP DP  RH WIND       PRES   REMARKS
STAUNTON*      PTSUNNY   32  27  81 CALM      30.25F
WAYNESBORO*    CLOUDY    35  26  69 CALM      30.22F
HOT SPRINGS VA CLOUDY    36  21  55 W8        30.16F
LYNCHBURG      CLOUDY    34  28  79 CALM      30.24R
DANVILLE       CLOUDY    33  28  81 CALM      30.26S
SOUTH BOSTON*  FAIR      32  26  77 CALM      30.27R
MARTINSVILLE   CLOUDY    30  26  85 CALM      30.26F
ROANOKE        PTSUNNY   39  27  62 CALM      30.26S
BLACKSBURG     CLOUDY    32  28  85 CALM      30.26R
DUBLIN*        CLOUDY    32  29  86 CALM      30.25R
MARION*        CLOUDY    36  26  66 CALM      30.24R
HILLSVILLE*    CLOUDY    38  20  46 CALM      30.19F
RICHLANDS*     CLOUDY    35  23  63 CALM      30.21R
WISE*          CLOUDY    34  30  86 SW3       30.23R
ABINGDON*      CLOUDY    34  30  83 CALM      30.23R
$$

MDZ021>025-VAZ099-100-171500-
SOUTHERN MARYLAND AND THE DELMARVA PENINSULA

CITY           SKY/WX    TMP DP  RH WIND       PRES   REMARKS
PATUXENT RIVER CLOUDY    33  30  88 CALM      30.27R
BAY BRIDGE APT MOSUNNY   36  30  80 CALM      30.27S
LEONARDTOWN    CLOUDY    32  30  93 CALM      30.28S
DOVER          MOSUNNY   35  35 100 CALM      30.26F
GEORGETOWN     MOSUNNY   35  30  82 CALM      30.27S
EASTON         MOSUNNY   36  32  87 CALM      30.29S
CAMBRIDGE      SUNNY     30  28  93 CALM      30.27S
SALISBURY      SUNNY     33  31  92 CALM      30.26S
OCEAN CITY     SUNNY     39  32  76 N3        30.28R
WALLOPS ISLAND CLOUDY    38  35  89 CALM      30.29R
ACCOMACK*      MOSUNNY   39  35  87 CALM      30.28S
$$

NCZ012>017-030>032-171500-
NORTH CENTRAL AND EASTERN NORTH CAROLINA

CITY           SKY/WX    TMP DP  RH WIND       PRES   REMARKS
ROANOKE RAPIDS FAIR      32  30  93 CALM      30.29S
RALEIGH        PTSUNNY   34  29  82 CALM      30.28S
ELIZABETH CITY CLOUDY    40  36  86 SW5       30.31R
AHOSKIE*       MOSUNNY   30  28  92 CALM      30.30S
EDENTON*       CLOUDY    40  36  87 CALM      30.32
CURRITUCK*     CLOUDY    35  32  87 SW3       30.31S
KILL DEVIL HLS CLOUDY    41  33  73 CALM      30.29F
MANTEO         CLOUDY    40  31  69 W5        30.31S
CAPE HATTERAS  SUNNY     46  39  76 W5        30.33S
TARBORO*       NOT AVBL
GOLDSBORO      CLOUDY    37  30  77 CALM      30.28F
WASHINGTON     MOSUNNY   36  30  78 SW3       30.32S
GREENVILLE     CLOUDY    36  32  87 CALM      30.31F
NEW BERN       MOSUNNY   37  34  89 CALM      30.33F
WILMINGTON     CLOUDY    39  37  92 CALM      30.33R
$$

VAZ048-171500-
ELSEWHERE

CITY           SKY/WX    TMP DP  RH WIND       PRES   REMARKS
HARRISBURG PA  CLOUDY    30  28  92 CALM      30.25S FOG
BALTIMORE      CLOUDY    36  28  73 CALM      30.26R
ANNAPOLIS      MOSUNNY   36  31  82 CALM      30.27R
ANDREWS AFB    MOSUNNY   38  28  69 CALM      30.26R
PHILADELPHIA   PTSUNNY   35  26  69 E6        30.29R
HENDERSON NC   MOSUNNY   31  26  81 S5        30.26S
GREENSBORO     PTSUNNY   33  28  81 CALM      30.24R
ROCKY MOUNT    MOSUNNY   35  31  85 CALM      30.29F
$$

VAZ100-171500-
MARINE

STATION/POSITION TIME  TEMP    WIND        PRES    WAVE   SWELL
                       AIR SEA DIR/SP/G            HT/PER HT/PER
                 (UTC) (F)     (DEG/KT/KT) (MB)    (FT/S) (FT/S)
BRANDYWINE LGT   1336   41     240/  4/  5 1025.4F
CAPE MAY NJ      1348   41 40  270/  2/  2 1024.7F
LEWES DE         1348   38 42   CALM  /  1 1025.0F
15NM E FENWICK I 1350   47 51  300/  2/  4 1025.7S   2/ 5   2/ 5
OCEAN-CITY-INLET 1348   40 45   10/  6/  8 1025.5R
WACHAPREAGUE VA  1348   44 38     CALM     1025.5R
THOMAS POINT MD  1400   39 43   CALM  /  2   N/A
GOOSES REEF MD   1400   44 44  280/  2/  2 1025.7    0
COVE POINT MD    1348   42      CALM  /  1 1025.5R
SOLOMONS ISLAND  1348   36 45  300/  1/  3 1024.8R
BISHOPS HEAD MD  1348   38 35  180/  4/  4 1025.5R
PINEY POINT MD   1348          150/  3/  4   N/A
POTOMAC MD       1400   39 44  200/  8/ 10 1024.8    0
CAMBRIDGE MD     1336   35 38              1025.4F
LEWISETTA VA     1348   35 38  230/  4/  5 1025.2R
RAPPAHANNOCK LGT 1348          170/  2/  3 1025.9R
STINGRAY PT      1400   40 44  230/  4/  4 1025.0    0
YORK RVR RNG VA  1348   39     220/  7/  8 1025.7F
YORKTOWN VA      1348   39 45  200/  3/  5 1025.0F
JAMESTOWN VA     1400      42  150/  4/  4   N/A     0
DOMINION TERM VA 1348   37     210/  4/  5 1025.5F
KIPTOPEKE VA     1348      44  200/  6/  7   N/A
CAPE HENRY VA    1348   39     210/  4/  6   N/A
WILLOUBY STN VA  1342          220/  9/ 10 1025.2F
S CRANEY ISL VA  1348   38     210/  3/  5 1025.5R
CAPE HENRY BUOY  1330      50                N/A     1/11
1ST LANDING BUOY 1400   40 46  220/  8/  8 1025.6    1
CAPE CHARLES BUO 1351      49                N/A     1/11
64NM E OF VA BCH 1350   51 59  310/  4/  6 1026.3R   2/ 4   2/10
DUCK PIER NC     1348   42 52  240/  8/ 10 1025.9R
44100 DUCK FRF   1345      54                N/A     1/10
44056 DUCK FRF   1330      54                N/A     1/10
OREGON INLET NC  1342   43 45  240/  5/  6 1026.4S
HATTERAS NC      1348   47 50  280/  6/  7 1026.7R
DIAMOND SHLS NC  1350   52     300/  4/  8 1027.3R   2/10   2/10
CAPE LOOKOUT NC  1400          350/  3/  3 1027.3F
$$




USA.gov is the U.S. government's official web portal to all federal, state and local government web resources and services.